Lexington Weather

Lexington, Massachusetts, USA

74°F
9/22/2021 1:32pm 
  • Lexington Conditions: Overcast
  • Temperature: 74.3°F / 23.5°CColder 1.4°F than last hour.
  • Dew Point: 68.0°FDecreased 1.1°Fsince last hour.
  • Relative Humidity: 81%Increased 1.0% since last hour.
  • Wind: Wind from SW SW 6 mph, 10-min avg: 4 mph, gust: 15 mph
  • Barometer: 30.10 in Steady
  • Visibility: 10 miles
  • Rain Today: 0.00 in
  •   

Regional Weather Roundup
for Boston / Norton, MA

        
000
ASUS41 KBOX 180104
RWRBOX

REGIONAL WEATHER ROUNDUP
NATIONAL WEATHER SERVICE BOSTON/NORTON MA
900 PM EDT FRI SEP 17 2021

NOTE:  "FAIR" INDICATES FEW OR NO CLOUDS BELOW 12,000 FEET WITH NO 
SIGNIFICANT WEATHER AND/OR OBSTRUCTIONS TO VISIBILITY.

MAZALL-180200-
EASTERN MASSACHUSETTS
  
CITY           SKY/WX    TMP DP  RH WIND       PRES   REMARKS
BOSTON         DRZL/FOG  66  63  90 N5        30.21F VSB 1/2          
BEVERLY        FOG       64  63  96 N7        30.20F VSB 3/4          
LAWRENCE       CLOUDY    63  62  97 NE5       30.24S FOG              
BEDFORD        CLOUDY    63  63 100 NE6       30.20F FOG              
BLUE HILL      NOT AVBL                                               
NORWOOD        FOG       65  63  93 CALM      30.20S VSB 1            
MARSHFIELD     FOG       66  66 100 VRB3      30.19F VSB 1/4          
PLYMOUTH       FOG       66  66 100 NE7       30.19F VSB 1/2          
TAUNTON        CLOUDY    65  64  97 N5        30.19F FOG              
NEW BEDFORD    CLOUDY    67  66  97 N6        30.18S FOG              
$$

MAZALL-180200-
CAPE COD AND THE ISLANDS
  
CITY           SKY/WX    TMP DP  RH WIND       PRES   REMARKS
FALMOUTH       FOG       68  68 100 NE9       30.18S VSB 1/2          
HYANNIS        FOG       69  69 100 NE3       30.16F VSB 1            
CHATHAM        FOG       68  67  96 NE7       30.18F VSB 3/4          
PROVINCETOWN   LGT RAIN  66  66 100 NE7       30.20S VSB 1/4          
NANTUCKET      PTCLDY    70  67  90 E8        30.15S                  
MARTHAS VNYRD  CLOUDY    71  70  96 NE10      30.16F                  
$$
 
MAZALL-180200-
CENTRAL AND WESTERN MASSACHUSETTS
  
CITY           SKY/WX    TMP DP  RH WIND       PRES   REMARKS
WORCESTER      FOG       63  63 100 NE8       30.23S VSB 1/4          
FITCHBURG      CLOUDY    65  63  93 CALM      30.23S                  
ORANGE         CLOUDY    67  64  90 CALM      30.23S                  
SPRINGFIELD    MOCLDY    65  64  94 NE5       30.20F                  
WESTFIELD      CLOUDY    68  66  93 NE5       30.20S                  
NORTH ADAMS    CLOUDY    69  64  84 E7        30.20F                  
PITTSFIELD     CLOUDY    67  64  90 CALM      30.21S                  
$$
 
RIZALL-180200-
RHODE ISLAND
  
CITY           SKY/WX    TMP DP  RH WIND       PRES   REMARKS
PROVIDENCE     CLOUDY    65  65 100 N9        30.20S FOG              
NEWPORT        CLOUDY    66  66 100 N8        30.18S FOG              
BLOCK ISLAND   CLOUDY    67  66  97 NE10G20   30.17S                  
SMITHFIELD     LGT RAIN  64  64 100 E8        30.21S VSB 1/2          
WESTERLY       CLOUDY    66  66 100 N8        30.17S                  
$$
 
CTZALL-180200-
CONNECTICUT
  
CITY           SKY/WX    TMP DP  RH WIND       PRES   REMARKS
BRADLEY INTL   CLOUDY    68  65  90 N5        30.20R                  
HARTFORD       CLOUDY    70  65  84 NE6       30.19R                  
BRIDGEPORT     MOCLDY    72  68  87 N9        30.16R                  
DANBURY        CLOUDY    72  66  81 NE7       30.20R                  
GROTON         CLOUDY    69  66  90 N13       30.16S                  
NEW HAVEN      PTCLDY    72  69  90 NE6       30.17R                  
CHESTER        CLOUDY    70  68  94 NE7       30.19S                  
MERIDEN        CLOUDY    70  65  84 N3        30.18R                  
WILLIMANTIC    CLOUDY    66  64  93 NE6       30.20S                  
OXFORD         CLOUDY    68  66  93 NE7       30.20S                  
$$

MEZ002-015-021-024-NHZ003-005-008-011-012-014-VTZ005-008-180200-
NORTHERN NEW ENGLAND
  
CITY           SKY/WX    TMP DP  RH WIND       PRES   REMARKS
PORTLAND ME    MOCLDY    63  60  90 N3        30.23F                  
BANGOR ME      MOCLDY    64  58  80 S3        30.23F                  
CONCORD NH     CLOUDY    65  62  90 CALM      30.23S                  
MANCHESTER NH  CLOUDY    67  60  78 NE5       30.21S                  
NASHUA NH      CLOUDY    66  65  96 CALM      30.23S                  
PORTSMOUTH NH  CLOUDY    64  59  83 N5        30.23F                  
JAFFREY NH     CLOUDY    64  64 100 CALM      30.24F FOG              
KEENE NH       CLOUDY    66  64  93 CALM      30.22F                  
BURLINGTON VT  PTCLDY    71  65  81 SE7       30.15F                  
MT. WASHINGTON FOG       52  52 100 SW22G33     N/A  VSB 0            
$$

NYZ052-076-180200-
EASTERN NEW YORK
  
CITY           SKY/WX    TMP DP  RH WIND       PRES   REMARKS
ALBANY         PTCLDY    65  65 100 CALM      30.18S                  
NEW YORK CITY  CLOUDY    74  68  81 NE9       30.14S                  
$$
 
ANZALL-180200-
MARINE OBSERVATIONS
  
STATION/POSITION TIME  TEMP    WIND        PRES    VSBY  WAVE
                       AIR SEA DIR/SP/G                  HT/PER
                 (UTC) (F)     (DEG/KT/KT) (MB)    (MI)  (FT/S)
BOSTON BUOY      0040      67   40/  8/ 10 1022.8F
BUZZARDS BAY     0000           30/ 18/ 20 1022.2S
NANTUCKET SOUND  0040   71 72   60/ 14/ 16 1021.3F
MASS BAY-STELLWA 0004   64      30/  8/ 10 1022.4F  1 7/8  3/ 4
ISLE OF SHOALS   0000   63      30/  8/  9 1023.0F
S OF BLOCK IS    0026      70                N/A           5/ 9
$$

......................KEY.........................
  SKY/WX - SKY CONDITION/PRESENT WEATHER
  TMP    - TEMPERATURE IN FAHRENHEIT
  DWPT   - DEWPOINT IN FAHRENHEIT
  RH     - RELATIVE HUMIDITY IN PERCENT
  WIND   - DIRECTION AND SPEED IN MPH
  PRES   - MEAN SEA LEVEL PRESSURE IN INCHES OF HG
  WCI    - WIND CHILL INDEX
  VSB    - VISIBILITY IN MILES
  HX     - HEAT INDEX
  TC     - TEMPERATURE IN CELSIUS
  VRB    - VARIABLE WIND DIRECTION
  N/A    - NOT AVAILABLE
  
      

Other recent Regional Weather Roundups

Wed Sep 22, 1:04pm

Wed Sep 22, 12:05pm

Wed Sep 22, 11:04am

Wed Sep 22, 10:04am

Wed Sep 22, 9:04am

Wed Sep 22, 8:04am

Wed Sep 22, 7:04am

Wed Sep 22, 6:04am

Wed Sep 22, 5:04am

Wed Sep 22, 4:04am

Wed Sep 22, 3:04am

Wed Sep 22, 2:04am

Wed Sep 22, 1:04am

Wed Sep 22, 12:04am

Tue Sep 21, 11:04pm

Tue Sep 21, 10:04pm

Tue Sep 21, 9:04pm

Tue Sep 21, 8:04pm

Tue Sep 21, 7:04pm

Tue Sep 21, 6:04pm

Tue Sep 21, 5:04pm

Tue Sep 21, 4:04pm

Tue Sep 21, 3:04pm

Tue Sep 21, 2:04pm

Tue Sep 21, 1:04pm

Tue Sep 21, 12:04pm

Tue Sep 21, 11:04am

Tue Sep 21, 10:04am

Tue Sep 21, 9:04am

Tue Sep 21, 8:04am

Tue Sep 21, 7:04am

Tue Sep 21, 6:04am

Tue Sep 21, 5:04am

Tue Sep 21, 4:04am

Tue Sep 21, 3:04am

Tue Sep 21, 2:04am

Tue Sep 21, 1:04am

Tue Sep 21, 12:04am

Mon Sep 20, 11:04pm

Mon Sep 20, 10:04pm

Mon Sep 20, 9:04pm

Mon Sep 20, 8:04pm

Mon Sep 20, 7:04pm

Mon Sep 20, 6:04pm

Mon Sep 20, 5:04pm

Mon Sep 20, 4:04pm

Mon Sep 20, 3:04pm

Mon Sep 20, 2:04pm

Mon Sep 20, 1:04pm

Mon Sep 20, 12:04pm

Mon Sep 20, 11:04am

Mon Sep 20, 10:04am

Mon Sep 20, 9:04am

Mon Sep 20, 7:04am

Mon Sep 20, 6:04am

Mon Sep 20, 5:04am

Mon Sep 20, 4:04am

Mon Sep 20, 3:04am

Mon Sep 20, 2:04am

Mon Sep 20, 1:04am

Mon Sep 20, 12:04am

Sun Sep 19, 11:04pm

Sun Sep 19, 10:04pm

Sun Sep 19, 9:04pm

Sun Sep 19, 8:04pm

Sun Sep 19, 7:04pm

Sun Sep 19, 6:04pm

Sun Sep 19, 5:04pm

Sun Sep 19, 4:04pm

Sun Sep 19, 3:04pm

Sun Sep 19, 2:05pm

Sun Sep 19, 1:04pm

Sun Sep 19, 12:04pm

Sun Sep 19, 11:04am

Sun Sep 19, 10:05am

Sun Sep 19, 9:04am

Sun Sep 19, 8:04am

Sun Sep 19, 7:04am

Sun Sep 19, 6:04am

Sun Sep 19, 5:04am

Sun Sep 19, 4:04am

Sun Sep 19, 3:04am

Sun Sep 19, 2:04am

Sun Sep 19, 1:04am

Sun Sep 19, 12:04am

Sat Sep 18, 11:05pm

Sat Sep 18, 10:04pm

Sat Sep 18, 9:04pm

Sat Sep 18, 8:04pm

Sat Sep 18, 7:04pm

Sat Sep 18, 6:04pm

Sat Sep 18, 5:04pm

Sat Sep 18, 4:04pm

Sat Sep 18, 3:04pm

Sat Sep 18, 2:04pm

Sat Sep 18, 1:04pm

Sat Sep 18, 12:04pm

Sat Sep 18, 11:04am

Sat Sep 18, 10:04am

Sat Sep 18, 9:04am

Sat Sep 18, 8:04am

Sat Sep 18, 7:04am

Sat Sep 18, 6:04am

Sat Sep 18, 5:04am

Sat Sep 18, 4:04am

Sat Sep 18, 3:04am

Sat Sep 18, 2:04am

Sat Sep 18, 1:04am

Sat Sep 18, 12:04am

Fri Sep 17, 11:04pm

Fri Sep 17, 10:04pm

Fri Sep 17, 8:04pm

Fri Sep 17, 7:04pm

Fri Sep 17, 6:04pm

Fri Sep 17, 5:04pm

Fri Sep 17, 4:04pm

Fri Sep 17, 3:04pm

Fri Sep 17, 2:04pm

Fri Sep 17, 1:04pm

Fri Sep 17, 12:05pm

Fri Sep 17, 11:04am

Fri Sep 17, 10:04am

Fri Sep 17, 9:04am

Fri Sep 17, 8:04am

Fri Sep 17, 7:04am

Fri Sep 17, 6:04am

Fri Sep 17, 5:04am

Fri Sep 17, 4:04am

Fri Sep 17, 3:04am

Fri Sep 17, 2:04am

Fri Sep 17, 1:04am

Fri Sep 17, 12:04am

Thu Sep 16, 11:04pm

Thu Sep 16, 10:04pm

Thu Sep 16, 9:04pm

Thu Sep 16, 8:04pm

Thu Sep 16, 7:04pm

Thu Sep 16, 6:04pm

Thu Sep 16, 5:04pm

Thu Sep 16, 4:04pm

Thu Sep 16, 3:04pm

Thu Sep 16, 2:04pm

Thu Sep 16, 1:05pm

Thu Sep 16, 12:04pm

Thu Sep 16, 11:05am

Thu Sep 16, 10:05am

Thu Sep 16, 9:04am

Thu Sep 16, 8:04am

Thu Sep 16, 7:04am

Thu Sep 16, 6:04am

Thu Sep 16, 5:04am

Thu Sep 16, 4:04am

Thu Sep 16, 3:04am

Thu Sep 16, 2:04am

Thu Sep 16, 1:04am

Thu Sep 16, 12:04am

Wed Sep 15, 11:04pm

Wed Sep 15, 10:04pm

Wed Sep 15, 9:04pm

Wed Sep 15, 8:04pm

Wed Sep 15, 7:04pm

Wed Sep 15, 6:04pm

Wed Sep 15, 5:05pm

Wed Sep 15, 4:04pm

Wed Sep 15, 3:04pm

Wed Sep 15, 2:04pm

Meta data:

ID: 88ec1109-d021-43ff-b2f0-50d53121bdbb
Link: https://api.weather.gov/products/88ec1109-d021-43ff-b2f0-50d53121bdbb